Location: Newark
(41.9364°N, 2.8061°E)
Time: 19:31:52
(UTC+00:00)

Courier 1B - All Passes

Search period start: 16 February 2020 00:00
Search period end: 26 February 2020 00:00
Orbit: 962 x 1209 km, 28.3° (Epoch: 16 February)

Date Brightness Start Highest point End Pass type
(mag) Time Alt. Az. Time Alt. Az. Time Alt. Az.
16 Feb - 16:20:15 10° S 16:23:24 13° SSE 16:26:29 10° SE daylight
16 Feb - 18:11:10 10° SW 18:16:29 23° S 18:21:35 10° ESE visible
16 Feb - 20:04:22 10° WSW 20:09:38 24° S 20:14:44 10° SE visible
16 Feb - 21:59:04 10° SW 22:02:36 15° SSW 22:06:05 10° SSE visible
17 Feb - 15:28:38 10° SSE 15:29:51 10° SSE 15:31:04 10° SE daylight
17 Feb - 17:17:44 10° SW 17:22:55 21° SSE 17:27:54 10° ESE daylight
17 Feb - 19:10:35 10° SW 19:16:05 25° S 19:21:23 10° SE visible
17 Feb - 21:04:48 10° WSW 21:09:08 18° SSW 21:13:23 10° SSE visible
18 Feb - 16:24:26 10° SSW 16:29:20 19° SSE 16:34:03 10° ESE daylight
18 Feb - 18:16:51 10° SW 18:22:31 26° S 18:27:57 10° SE visible
18 Feb - 20:10:43 10° WSW 20:15:39 21° SSW 20:20:25 10° SSE visible
19 Feb - 15:31:20 10° SSW 15:35:44 17° SSE 15:40:01 10° SE daylight
19 Feb - 17:23:10 10° SW 17:28:56 25° S 17:34:25 10° ESE daylight
19 Feb - 19:16:44 10° WSW 19:22:07 24° S 19:27:17 10° SE visible
19 Feb - 21:12:11 10° SW 21:15:03 13° SSW 21:17:52 10° S visible
20 Feb - 14:38:37 10° S 14:42:09 14° SSE 14:45:36 10° SE daylight
20 Feb - 16:29:35 10° SW 16:35:18 24° S 16:40:47 10° ESE daylight
20 Feb - 18:22:49 10° WSW 18:28:33 26° S 18:34:00 10° SE visible
20 Feb - 20:17:31 10° WSW 20:21:35 16° SSW 20:25:33 10° SSE visible
21 Feb - 13:46:51 10° SSE 13:48:33 11° SSE 13:50:14 10° SE daylight
21 Feb - 15:36:06 10° SW 15:41:40 22° SSE 15:47:02 10° ESE daylight
21 Feb - 17:28:59 10° SW 17:34:57 27° S 17:40:38 10° SE daylight
21 Feb - 19:23:13 10° WSW 19:28:05 20° SSW 19:32:47 10° SSE visible
22 Feb - 14:42:48 10° SSW 14:48:02 20° SSE 14:53:06 10° ESE daylight
22 Feb - 16:35:12 10° SW 16:41:19 27° S 16:47:08 10° ESE daylight
22 Feb - 18:29:05 10° WSW 18:34:32 23° SSW 18:39:46 10° SE visible
22 Feb - 20:25:39 10° SW 20:27:27 11° SSW 20:29:13 10° S visible
23 Feb - 13:49:44 10° SSW 13:54:24 17° SSE 13:58:57 10° ESE daylight
23 Feb - 15:41:31 10° SW 15:47:39 27° S 15:53:32 10° ESE daylight
23 Feb - 17:35:04 10° WSW 17:40:57 26° S 17:46:34 10° SE daylight
23 Feb - 19:30:17 10° SW 19:33:58 15° SSW 19:37:33 10° S visible
24 Feb - 12:57:06 10° S 13:00:46 14° SSE 13:04:24 10° SE daylight
24 Feb - 14:47:55 10° SW 14:53:58 25° S 14:59:49 10° ESE daylight
24 Feb - 16:41:08 10° WSW 16:47:19 27° S 16:53:13 10° SE daylight
24 Feb - 18:35:44 10° WSW 18:40:27 18° SSW 18:45:02 10° SSE visible
25 Feb - 12:05:36 10° SSE 12:07:09 11° SSE 12:08:42 10° SE daylight
25 Feb - 13:54:29 10° SW 14:00:17 23° SSE 14:05:57 10° ESE daylight
25 Feb - 15:47:17 10° SW 15:53:38 28° S 15:59:44 10° SE daylight
25 Feb - 17:41:26 10° WSW 17:46:53 22° SSW 17:52:07 10° SSE daylight
